GALAXY 13 (HORIZONS-1)

Last updated on Thu Oct 30 2025 00:02:47 GMT+0000 (Coordinated Universal Time)

1 27954U 03044A 25302.47916198 .00000143 00000+0 00000+0 0 9991 2 27954 0.8187 87.0219 0002291 138.3951 195.1685 1.00273736 44253
UTC large
Height (km)
Speed (km/s)
/
Latitude / Longitude
Inclination (degrees)
Orbital Period (minutes)
Azimuth
Elevation
Range (km)
Doppler Factor

Next 0 passes for location: London (51.5072 / 0.1276)

Sorry there are no passes over London.